Stations météo

réclame
Mon MeteoGroup
Girona/Costa Brava, Espagne (8184): Température de l'air & dewpoint: 13.03.2019 03:00:00 - 19.03.2019 03:00:00 (CET)Girona/Costa Brava, Espagne (8184): Vitesse du vent: 13.03.2019 03:00:00 - 19.03.2019 03:00:00 (CET)Girona/Costa Brava, Espagne (8184): Direction du vent: 13.03.2019 03:00:00 - 19.03.2019 03:00:00 (CET)Girona/Costa Brava, Espagne (8184): reduced air pressure: 13.03.2019 03:00:00 - 19.03.2019 03:00:00 (CET)Girona/Costa Brava, Espagne (8184): visibility: 13.03.2019 03:00:00 - 19.03.2019 03:00:00 (CET)
Date & Time tt [°C] td [°C] ff [km/h] ff [knt] dd ppp [hPa] vv [km]
19.03.2019 03:00:00 6,9 4,6 2 1 WNW 1022,8 -
19.03.2019 02:00:00 7,3 4,6 4 2 E 1022,9 -
19.03.2019 01:00:00 6,5 4,9 11 6 NNE 1023,4 -
19.03.2019 00:00:00 6,6 4,8 0 0 N 1023,3 -
18.03.2019 23:00:00 6,7 4,4 4 2 WNW 1023,6 -
18.03.2019 22:00:00 7,8 4,7 4 2 NE 1023,4 -
18.03.2019 21:00:00 9,5 5,5 8 4 S 1022,8 -
18.03.2019 20:00:00 10,2 5,4 5 3 SSE 1022,7 -
18.03.2019 19:00:00 10,7 5,2 9 5 S 1022,1 -
18.03.2019 18:00:00 11,8 5,2 18 10 SSW 1021,6 -
18.03.2019 17:00:00 12,4 4,3 24 13 SSW 1021,0 -
18.03.2019 16:00:00 13,9 4,3 26 14 SSW 1020,9 -
18.03.2019 15:00:00 15,5 3,9 28 15 SSW 1020,8 -
18.03.2019 14:00:00 15,3 2,6 21 11 SSE 1021,0 -
18.03.2019 13:00:00 17,2 -0,6 4 2 ENE 1021,3 -
18.03.2019 12:00:00 16,3 1,2 9 5 SSE 1021,8 -
18.03.2019 11:00:00 15,1 -0,5 9 5 SE 1022,1 -
18.03.2019 10:00:00 13,6 0,3 2 1 NE 1022,0 -
18.03.2019 09:00:00 11,6 1,4 2 1 SSE 1021,7 -
18.03.2019 08:00:00 7,5 2,3 0 0 N 1021,0 -
18.03.2019 07:00:00 8,0 2,2 8 4 NW 1020,6 -
18.03.2019 06:00:00 8,7 2,0 5 3 SE 1019,9 -
18.03.2019 05:00:00 8,4 4,0 4 2 S 1019,4 -
18.03.2019 04:00:00 8,5 5,1 8 4 SSW 1019,0 -
18.03.2019 03:00:00 8,9 4,5 5 3 NNE 1019,0 -
18.03.2019 02:00:00 8,7 3,8 4 2 NW 1019,2 -
18.03.2019 01:00:00 8,2 4,2 0 0 N 1019,1 -
18.03.2019 00:00:00 8,4 3,0 4 2 ENE 1018,7 -
17.03.2019 23:00:00 8,7 4,2 4 2 W 1018,3 -
17.03.2019 22:00:00 9,4 4,8 4 2 W 1017,3 -
17.03.2019 21:00:00 10,2 4,6 4 2 NNE 1016,7 -
17.03.2019 20:00:00 11,4 5,4 9 5 ENE 1015,7 -
17.03.2019 19:00:00 13,4 5,9 21 11 ENE 1014,6 35
17.03.2019 18:00:00 16,3 9,4 9 5 S 1013,4 -
17.03.2019 17:00:00 17,9 9,8 15 8 SSW 1013,2 -
17.03.2019 16:00:00 20,2 9,4 18 10 S 1012,7 35
17.03.2019 15:00:00 20,8 8,9 11 6 SSW 1012,5 -
17.03.2019 14:00:00 20,8 9,2 5 3 S 1013,0 -
17.03.2019 13:00:00 20,3 8,5 8 4 SW 1013,5 35
17.03.2019 12:00:00 19,2 8,6 8 4 ESE 1014,0 -
17.03.2019 11:00:00 18,0 9,4 4 2 WSW 1013,8 -
17.03.2019 10:00:00 15,9 8,9 11 6 NE 1013,8 40
17.03.2019 09:00:00 12,8 7,3 21 11 NNE 1013,1 -
17.03.2019 08:00:00 9,0 5,6 13 7 NNE 1012,7 -
17.03.2019 07:00:00 7,6 3,3 5 3 WSW 1012,1 -
17.03.2019 06:00:00 5,8 3,8 5 3 SW 1012,2 -
17.03.2019 05:00:00 6,4 4,1 0 0 N 1012,2 -
17.03.2019 04:00:00 6,4 5,3 8 4 NNE 1012,5 -
17.03.2019 03:00:00 6,9 6,0 4 2 WSW 1013,2 -
17.03.2019 02:00:00 6,6 6,0 4 2 WSW 1013,8 -
17.03.2019 01:00:00 7,7 7,4 9 5 W 1014,4 -
17.03.2019 00:00:00 8,4 8,1 8 4 W 1015,3 -
16.03.2019 23:00:00 8,9 8,4 8 4 WSW 1015,8 -
16.03.2019 22:00:00 10,1 9,5 5 3 W 1016,3 -
16.03.2019 21:00:00 11,4 10,2 5 3 W 1016,4 -
16.03.2019 20:00:00 12,6 10,8 8 4 SSW 1016,5 -
16.03.2019 19:00:00 13,8 11,3 13 7 SSW 1016,6 30
16.03.2019 18:00:00 16,4 11,8 15 8 S 1016,7 -
16.03.2019 17:00:00 18,2 12,1 18 10 SSW 1016,6 -
16.03.2019 16:00:00 19,9 11,0 18 10 S 1017,0 -
16.03.2019 15:00:00 21,4 10,3 11 6 S 1017,3 -
16.03.2019 14:00:00 21,1 10,0 11 6 S 1018,3 -
16.03.2019 13:00:00 19,8 9,0 9 5 S 1019,5 -
16.03.2019 12:00:00 17,4 8,7 13 7 S 1020,8 -
16.03.2019 11:00:00 14,7 8,2 11 6 SSW 1021,6 -
16.03.2019 10:00:00 12,4 7,5 5 3 SSE 1022,5 -
16.03.2019 09:00:00 8,7 6,5 4 2 SSW 1023,0 -
16.03.2019 08:00:00 4,0 3,3 0 0 N 1023,4 -
16.03.2019 07:00:00 2,2 1,8 0 0 N 1023,7 28
16.03.2019 06:00:00 2,3 1,7 9 5 WSW 1023,7 -
16.03.2019 05:00:00 3,2 2,6 0 0 N 1023,7 -
16.03.2019 04:00:00 3,7 3,1 4 2 NE 1023,8 -
16.03.2019 03:00:00 4,1 3,2 0 0 N 1024,1 -
16.03.2019 02:00:00 5,0 4,3 4 2 SSW 1024,6 -
16.03.2019 01:00:00 5,9 5,0 0 0 N 1024,7 8
16.03.2019 00:00:00 6,0 4,8 2 1 S 1025,0 -
15.03.2019 23:00:00 7,6 6,7 0 0 N 1025,0 -
15.03.2019 22:00:00 7,1 5,5 8 4 NNE 1024,8 -
15.03.2019 21:00:00 9,2 6,4 0 0 N 1024,3 -
15.03.2019 20:00:00 10,7 7,9 8 4 SSW 1024,1 -
15.03.2019 19:00:00 11,8 8,6 15 8 SSW 1023,3 40
15.03.2019 18:00:00 14,8 9,9 18 10 SSW 1022,4 -
15.03.2019 17:00:00 17,9 7,4 18 10 S 1021,9 -
15.03.2019 16:00:00 20,2 6,9 13 7 SSW 1021,4 -
15.03.2019 15:00:00 20,4 5,9 11 6 S 1021,4 40
15.03.2019 14:00:00 20,1 5,9 11 6 S 1022,0 -
15.03.2019 13:00:00 19,3 7,1 11 6 SSW 1022,9 40
15.03.2019 12:00:00 18,1 5,3 9 5 S 1023,6 -
15.03.2019 11:00:00 16,6 5,4 5 3 S 1023,8 -
15.03.2019 10:00:00 14,7 7,6 9 5 S 1023,8 40
15.03.2019 09:00:00 11,3 7,0 2 1 WSW 1023,5 -
15.03.2019 08:00:00 5,7 4,8 0 0 N 1023,6 -
15.03.2019 07:00:00 3,4 2,8 5 3 NE 1023,4 -
15.03.2019 06:00:00 3,9 3,2 0 0 N 1022,8 -
15.03.2019 05:00:00 4,1 3,3 8 4 WSW 1022,9 -
15.03.2019 04:00:00 5,2 4,3 0 0 N 1022,5 -
15.03.2019 03:00:00 5,9 4,9 0 0 N 1023,0 -
15.03.2019 02:00:00 6,5 5,3 8 4 W 1023,3 -
15.03.2019 01:00:00 6,6 5,1 0 0 N 1023,2 -
15.03.2019 00:00:00 7,3 5,3 0 0 N 1023,2 -
14.03.2019 23:00:00 7,2 5,5 5 3 WNW 1023,8 -
14.03.2019 22:00:00 7,4 5,5 5 3 N 1023,1 -
14.03.2019 21:00:00 8,7 5,8 0 0 N 1023,3 -
14.03.2019 20:00:00 9,6 5,8 5 3 W 1022,5 -
14.03.2019 19:00:00 11,3 5,4 5 3 SSW 1022,8 30
14.03.2019 18:00:00 12,2 5,4 8 4 SE 1022,6 -
14.03.2019 17:00:00 12,6 6,2 9 5 S 1022,4 -
14.03.2019 16:00:00 13,7 6,4 21 11 S 1022,6 5
14.03.2019 15:00:00 16,5 4,9 8 4 ENE 1022,4 -
14.03.2019 14:00:00 16,4 3,8 5 3 SE 1023,0 -
14.03.2019 13:00:00 15,5 5,2 9 5 NE 1024,2 -
14.03.2019 12:00:00 14,8 4,2 4 2 SSW 1025,2 -
14.03.2019 11:00:00 13,7 5,5 5 3 SE 1025,7 -
14.03.2019 10:00:00 12,0 5,4 2 1 WSW 1026,3 -
14.03.2019 09:00:00 8,9 5,1 0 0 N 1026,2 -
14.03.2019 08:00:00 5,4 4,2 4 2 SW 1026,0 -
14.03.2019 07:00:00 5,1 3,6 4 2 NW 1025,8 -
14.03.2019 06:00:00 6,3 4,8 4 2 N 1025,4 -
14.03.2019 05:00:00 6,9 6,3 5 3 NW 1025,3 -
14.03.2019 04:00:00 7,6 7,2 0 0 N 1025,2 -
14.03.2019 03:00:00 7,6 7,3 0 0 N 1025,3 -
14.03.2019 02:00:00 7,8 7,5 4 2 NW 1025,1 -
14.03.2019 01:00:00 8,0 7,6 5 3 WNW 1025,1 -
14.03.2019 00:00:00 8,0 7,7 2 1 NNE 1024,7 -
13.03.2019 23:00:00 7,8 7,4 4 2 ENE 1024,2 -
13.03.2019 22:00:00 8,6 8,0 2 1 W 1024,2 -
13.03.2019 21:00:00 8,3 7,7 5 3 SSW 1023,3 -
13.03.2019 20:00:00 8,4 7,5 8 4 SSE 1022,9 -
13.03.2019 19:00:00 9,2 8,0 8 4 SE 1022,6 -
13.03.2019 18:00:00 10,4 9,0 9 5 SE 1021,7 -
13.03.2019 17:00:00 10,0 8,8 11 6 SSE 1020,9 -
13.03.2019 16:00:00 - - - - - - -
13.03.2019 15:00:00 12,3 8,9 18 10 S 1020,2 -
13.03.2019 14:00:00 11,5 8,1 9 5 S 1020,6 -
13.03.2019 13:00:00 9,4 8,0 11 6 SSW 1021,3 -
13.03.2019 12:00:00 7,9 6,8 8 4 SW 1021,7 -
13.03.2019 11:00:00 7,6 6,2 4 2 NNW 1021,4 -
13.03.2019 10:00:00 7,2 6,5 13 7 ENE 1020,9 -
13.03.2019 09:00:00 8,3 7,1 15 8 NE 1020,6 -
13.03.2019 08:00:00 9,2 8,6 4 2 NE 1020,1 -
13.03.2019 07:00:00 8,8 7,7 2 1 WNW 1019,8 -
13.03.2019 06:00:00 8,1 7,3 8 4 NE 1019,6 -
13.03.2019 05:00:00 7,6 7,2 4 2 NNW 1019,5 -
13.03.2019 04:00:00 8,5 8,1 4 2 WNW 1019,8 -
13.03.2019 03:00:00 9,4 8,9 5 3 N 1020,2 -

tt = Température de l'air
td = dewpoint
ff = Vitesse du vent
dd = Direction du vent
ppp = reduced air pressure
vv = visibility

stations d'obs. à proximité